User: anonymous   Login
Location: Bangkok
(13.7500°N, 100.5170°E)
Time: 12:58:30
(UTC+07:00)
Language:

SPOT 1/Viking Rocket - Orbit

View from above orbital plane
View from above orbital plane
View from above satellite
View from above satellite

Ground track
Ground track

The orbit data is extracted from the following two-line orbital elements,

1 16615U 86019C   15056.74756344  .00000183  00000-0  85747-4 0  9997
2 16615 098.7218 114.5033 0011490 007.4719 100.7401 14.31425759518969
Epoch (UTC): 25 February 2015 17:56:29
Eccentricity: 0.0011490
inclination: 98.7218°
perigee height: 779 km
apogee height: 795 km
right ascension of ascending node: 114.5033°
argument of perigee: 7.4719°
revolutions per day: 14.31425759
mean anomaly at epoch: 100.7401°
orbit number at epoch: 51896

The dashed part of the orbit path shows where the satellite is in the earth's shadow,  

DLR